Location: *
(51.1248°S, 108.4023°W)
Time: 04:30:22
(UTC+00:00)

Cosmos 2278 Rocket - Pass Details

Date: 26 October 2021
Orbit: 841 x 845 km, 71.0° (Epoch: 01 December)

Event Time Altitude Azimuth Distance (km) Brightness Sun altitude
Exits shadow 09:26:37 - 256° (WSW) 3,433 5.1 -18.5°
Rises 09:26:39 0° 256° (WSW) 3,425 5.1 -18.5°
Reaches altitude 10° 09:30:37 10° 229° (SW) 2,495 4.7 -18.1°
Maximum altitude 09:33:17 13° 201° (SSW) 2,271 4.8 -17.9°
Drops below altitude 10° 09:35:57 10° 173° (S) 2,500 5.5 -17.6°
Sets 09:39:57 0° 146° (SE) 3,439 7.1 -17.2°
